Torna al catalogo

STARLINK-34167

AttivoComunicazioniVLEO
NORAD 64228·PAYLOAD·🇺🇸 United States

Lanciato May 31, 2025 da Vandenberg Space Force Base

Loading…

Prossimi Passaggi (prossime 24 ore)

TLE

AggiornatoSource: CelesTrak SupGP

Epoca: Sep 15, 2026, 02:48 UTC

1 64228C 25117AB  26258.11715278 -.00043940  00000+0 -12980-2 0  2584
2 64228  53.1582 235.1354 0001540  89.3010 235.8808 15.34415952    16

Traccia STARLINK-34167 in tempo reale con AllMySat

Download on the App Store